Flag for Germany Weather past 2 weeks in Dillenburg, Hesse, Germany

Now
59 °F

Cool.


Feels Like: 59 °F
Forecast: 53 / 77 °F
Wind: 1 mph from West

Location: Giessen

Current Time: Jul 31, 2014 at 5:28:21 AM

Latest Report: Jul 31, 2014 at 5:00 AM


Visibility: 11 mi

Pressure: 29.99 "Hg

Humidity: 93%

Dew point: 57 °F

Location of DillenburgLocation

Historic Weather in Dillenburg — Graph

°F

Dillenburg temperature yesterday

Maximum temperature yesterday: 72 °F (at 8:00 PM)
Minimum temperature yesterday: 64 °F (at 4:00 AM)
Average temperature yesterday: 67 °F

Past Weeks' High & Low Weather Summary

 TemperatureHumidityPressure
High89 °F (Jul 19, 6:00 PM)98% (Jul 17, 6:00 AM)30.20 "Hg (Jul 17, 6:00 AM)
Low55 °F (Jul 17, 6:00 AM)31% (Jul 18, 7:00 PM)29.72 "Hg (Jul 29, 5:00 PM)
Average70 °F73%29.94 "Hg
* Reported Jul 16 4:00 AM — Jul 31 4:00 AM, Dillenburg, Weather by CustomWeather, © 2014

Note: Actual official high and low records may vary slightly from our data, if they occured in-between our weather recording intervals... More about our weather records

Advertising

Dillenburg weather history for previous 24 hours

 ConditionsComfort  
Time TempWeatherWind HumidityBarometerVisibility
4:00 AM
Jul 31
60 °FCool.1 mph90%29.98 "Hg16 mi
3:00 AM61 °FCool.2 mph85%29.98 "Hg19 mi
2:00 AM63 °FOvercast.2 mph80%29.96 "Hg28 mi
1:00 AM64 °FOvercast.3 mph79%29.96 "Hg25 mi
12:00 AM65 °FOvercast.3 mph78%29.95 "Hg31 mi
11:00 PM
Jul 30
65 °FOvercast.3 mph80%29.95 "Hg25 mi
10:00 PM65 °FPassing clouds.2 mph78%29.94 "Hg28 mi
9:00 PM69 °FOvercast.3 mph65%29.90 "Hg40 mi
8:00 PM72 °FOvercast.5 mph60%29.89 "Hg28 mi
7:00 PM71 °FOvercast.2 mph66%29.88 "Hg25 mi
6:00 PM71 °FOvercast.3 mph68%29.87 "Hg19 mi
5:00 PM70 °FOvercast.5 mph71%29.87 "Hg14 mi
4:00 PM69 °FOvercast.6 mph72%29.86 "Hg15 mi
3:00 PM70 °FMild.7 mph72%29.85 "Hg17 mi
2:00 PM69 °FOvercast.6 mph76%29.85 "Hg31 mi
1:00 PM67 °FOvercast.3 mph83%29.84 "Hg43 mi
12:00 PM70 °FOvercast.6 mph78%29.82 "Hg34 mi
11:00 AM68 °FOvercast.3 mph85%29.82 "Hg19 mi
10:00 AM67 °FDrizzle. Overcast.5 mph87%29.80 "Hg15 mi
9:00 AM67 °FOvercast.2 mph90%29.79 "Hg10 mi
8:00 AM66 °FLight freezing rain. Overcast.1 mph95%29.78 "Hg6 mi
7:00 AM65 °FOvercast.2 mph96%29.78 "Hg6 mi
6:00 AM65 °FLight freezing rain. Overcast.1 mph96%29.77 "Hg4 mi
5:00 AM65 °FOvercast.3 mph96%29.77 "Hg6 mi
Weather by CustomWeather, © 2014

See weather overviewHow to use our weather pages